Location: Newark
(53.3333°N, 83.7500°E)
Time: 22:00:48
(UTC+00:00)

N. Korean satellite - Pass Details

Date: 27 September 2020
Orbit: 452 x 505 km, 97.2° (Epoch: 28 October)

Event Time Altitude Azimuth Distance (km) Brightness Sun altitude
Rises 23:14:48 0° 23° (NNE) 2,600 10.8 -10.7°
Reaches altitude 10° 23:17:15 10° 39° (NE) 1,702 10.1 -10.4°
Maximum altitude 23:20:10 22° 92° (E) 1,114 9.5 -9.9°
Drops below altitude 10° 23:23:02 10° 145° (SE) 1,666 9.6 -9.5°
Sets 23:25:24 0° 161° (SSE) 2,529 10.3 -9.2°
